| time (UTC) | temp C | wind direction | speed KPH | gust KPH | rain 1hr cm | rain 24hr cm | rain mn cm | humidity % | barometer mb |
| 20260508220624 | 17 | 12 | 0.0 | 0.0 | 0.00 | 0.00 | 0.00 | 59 | 1009.6 |
| 20260508220120 | 17 | 14 | 0.0 | 0.0 | 0.00 | 0.00 | 0.00 | 60 | 1009.8 |
| 20260508215617 | 17 | 6 | 0.0 | 0.0 | 0.00 | 0.00 | 0.00 | 58 | 1009.6 |
| 20260508215113 | 17 | 14 | 0.0 | 0.0 | 0.00 | 0.00 | 0.00 | 57 | 1009.9 |
| 20260508214611 | 17 | 9 | 0.0 | 0.0 | 0.00 | 0.00 | 0.00 | 58 | 1009.6 |
| 20260508214107 | 17 | 9 | 0.0 | 0.0 | 0.00 | 0.00 | 0.00 | 57 | 1009.7 |
| 20260508213604 | 17 | 6 | 0.0 | 0.0 | 0.00 | 0.00 | 0.00 | 56 | 1009.7 |
| 20260508213100 | 17 | 23 | 0.0 | 0.0 | 0.00 | 0.00 | 0.00 | 59 | 1009.6 |
| 20260508212557 | 17 | 1 | 0.0 | 0.0 | 0.00 | 0.00 | 0.00 | 56 | 1009.6 |
| 20260508212053 | 17 | 5 | 0.0 | 0.0 | 0.00 | 0.00 | 0.00 | 56 | 1010.0 |
| 20260508211549 | 17 | 350 | 0.0 | 0.0 | 0.00 | 0.00 | 0.00 | 57 | 1009.8 |
| 20260508211045 | 18 | 11 | 0.0 | 0.0 | 0.00 | 0.00 | 0.00 | 57 | 1009.7 |
| 20260508210542 | 18 | 5 | 0.0 | 0.0 | 0.00 | 0.00 | 0.00 | 55 | 1009.9 |
| 20260508210040 | 18 | 28 | 3.2 | 3.2 | 0.00 | 0.00 | 0.00 | 53 | 1010.0 |
| 20260508205536 | 18 | 19 | 0.0 | 0.0 | 0.00 | 0.00 | 0.00 | 56 | 1010.0 |
| 20260508205033 | 18 | 157 | 0.0 | 0.0 | 0.00 | 0.00 | 0.00 | 57 | 1010.1 |
| 20260508204530 | 18 | 23 | 0.0 | 0.0 | 0.00 | 0.00 | 0.00 | 55 | 1010.2 |
| 20260508204025 | 18 | 19 | 3.2 | 8.0 | 0.00 | 0.00 | 0.00 | 54 | 1010.2 |
| 20260508203521 | 18 | 337 | 0.0 | 0.0 | 0.00 | 0.00 | 0.00 | 56 | 1010.3 |
| 20260508203018 | 18 | 52 | 1.6 | 1.6 | 0.00 | 0.00 | 0.00 | 55 | 1010.4 |
| 20260508202515 | 18 | 275 | 1.6 | 1.6 | 0.00 | 0.00 | 0.00 | 53 | 1010.7 |
| 20260508202012 | 18 | 78 | 0.0 | 1.6 | 0.00 | 0.00 | 0.00 | 56 | 1010.6 |
| 20260508201508 | 18 | 61 | 0.0 | 0.0 | 0.00 | 0.00 | 0.00 | 54 | 1010.7 |
| 20260508201005 | 18 | 346 | 1.6 | 3.2 | 0.00 | 0.00 | 0.00 | 52 | 1010.5 |
| 20260508200502 | 18 | 342 | 0.0 | 0.0 | 0.00 | 0.00 | 0.00 | 54 | 1010.7 |
| 20260508195956 | 18 | 6 | 0.0 | 0.0 | 0.00 | 0.00 | 0.00 | 54 | 1010.5 |
| 20260508195454 | 18 | 12 | 0.0 | 0.0 | 0.00 | 0.00 | 0.00 | 54 | 1010.5 |
| 20260508194950 | 18 | 202 | 0.0 | 1.6 | 0.00 | 0.00 | 0.00 | 54 | 1010.8 |
| 20260508194448 | 18 | 351 | 1.6 | 1.6 | 0.00 | 0.00 | 0.00 | 51 | 1010.7 |
| 20260508193944 | 18 | 207 | 0.0 | 0.0 | 0.00 | 0.00 | 0.00 | 52 | 1010.8 |
| 20260508193441 | 18 | 291 | 1.6 | 3.2 | 0.00 | 0.00 | 0.00 | 51 | 1010.8 |
| 20260508192938 | 18 | 359 | 0.0 | 1.6 | 0.00 | 0.00 | 0.00 | 51 | 1010.7 |
| 20260508192435 | 18 | 253 | 4.8 | 8.0 | 0.00 | 0.00 | 0.00 | 50 | 1010.9 |
| 20260508191932 | 20 | 308 | 3.2 | 3.2 | 0.00 | 0.00 | 0.00 | 48 | 1010.9 |
| 20260508191429 | 20 | 298 | 1.6 | 1.6 | 0.00 | 0.00 | 0.00 | 53 | 1011.2 |
| 20260508190925 | 20 | 36 | 1.6 | 3.2 | 0.00 | 0.00 | 0.00 | 52 | 1011.0 |
| 20260508190423 | 20 | 188 | 1.6 | 1.6 | 0.00 | 0.00 | 0.00 | 51 | 1011.3 |
| 20260508185919 | 21 | 79 | 0.0 | 1.6 | 0.00 | 0.00 | 0.00 | 52 | 1011.5 |
| 20260508185417 | 20 | 103 | 1.6 | 3.2 | 0.00 | 0.00 | 0.00 | 55 | 1011.3 |
| 20260508184914 | 20 | 108 | 1.6 | 1.6 | 0.00 | 0.00 | 0.00 | 51 | 1011.5 |
| 20260508184411 | 19 | 284 | 3.2 | 3.2 | 0.00 | 0.00 | 0.00 | 53 | 1011.6 |
| 20260508183907 | 19 | 294 | 4.8 | 4.8 | 0.00 | 0.00 | 0.00 | 52 | 1011.5 |
| 20260508183404 | 20 | 303 | 1.6 | 3.2 | 0.00 | 0.00 | 0.00 | 52 | 1011.8 |
| 20260508182859 | 20 | 273 | 3.2 | 4.8 | 0.00 | 0.00 | 0.00 | 52 | 1011.6 |
| 20260508182357 | 20 | 321 | 1.6 | 1.6 | 0.00 | 0.00 | 0.00 | 50 | 1011.8 |
| 20260508181852 | 20 | 228 | 1.6 | 1.6 | 0.00 | 0.00 | 0.00 | 54 | 1011.8 |
| 20260508181349 | 19 | 31 | 1.6 | 1.6 | 0.00 | 0.00 | 0.00 | 52 | 1012.0 |
| 20260508180846 | 18 | 317 | 1.6 | 1.6 | 0.00 | 0.00 | 0.00 | 53 | 1011.9 |
| 20260508180343 | 18 | 271 | 1.6 | 1.6 | 0.00 | 0.00 | 0.00 | 53 | 1012.2 |
| 20260508175839 | 18 | 312 | 1.6 | 1.6 | 0.00 | 0.00 | 0.00 | 55 | 1012.3 |
| 20260508175336 | 18 | 257 | 1.6 | 1.6 | 0.00 | 0.00 | 0.00 | 54 | 1012.1 |
| 20260508174834 | 18 | 259 | 4.8 | 4.8 | 0.00 | 0.00 | 0.00 | 52 | 1012.2 |
| 20260508174331 | 18 | 206 | 1.6 | 3.2 | 0.00 | 0.00 | 0.00 | 54 | 1012.3 |
| 20260508173827 | 18 | 46 | 1.6 | 3.2 | 0.00 | 0.00 | 0.00 | 52 | 1012.3 |
| 20260508173325 | 18 | 5 | 0.0 | 0.0 | 0.00 | 0.00 | 0.00 | 55 | 1012.4 |
| 20260508172820 | 18 | 359 | 0.0 | 1.6 | 0.00 | 0.00 | 0.00 | 57 | 1012.4 |
| 20260508172318 | 18 | 108 | 0.0 | 1.6 | 0.00 | 0.00 | 0.00 | 56 | 1012.7 |
| 20260508171814 | 18 | 285 | 1.6 | 3.2 | 0.00 | 0.00 | 0.00 | 52 | 1012.7 |
| 20260508171310 | 19 | 284 | 0.0 | 3.2 | 0.00 | 0.00 | 0.00 | 55 | 1012.5 |
| 20260508170807 | 19 | 48 | 0.0 | 0.0 | 0.00 | 0.00 | 0.00 | 55 | 1012.6 |
| 20260508170306 | 19 | 294 | 3.2 | 4.8 | 0.00 | 0.00 | 0.00 | 52 | 1012.8 |
| 20260508165802 | 20 | 243 | 1.6 | 3.2 | 0.00 | 0.00 | 0.00 | 54 | 1012.9 |
| 20260508165259 | 21 | 282 | 3.2 | 4.8 | 0.00 | 0.00 | 0.00 | 53 | 1012.9 |
| 20260508164755 | 20 | 27 | 1.6 | 1.6 | 0.00 | 0.00 | 0.00 | 55 | 1013.2 |
| 20260508164252 | 19 | 292 | 1.6 | 3.2 | 0.00 | 0.00 | 0.00 | 50 | 1013.3 |
| 20260508163750 | 20 | 11 | 1.6 | 3.2 | 0.00 | 0.00 | 0.00 | 51 | 1013.2 |
| 20260508163247 | 20 | 89 | 1.6 | 3.2 | 0.00 | 0.00 | 0.00 | 52 | 1013.4 |
| 20260508162737 | 20 | 331 | 1.6 | 1.6 | 0.00 | 0.00 | 0.00 | 54 | 1013.3 |
| 20260508162234 | 20 | 292 | 4.8 | 4.8 | 0.00 | 0.00 | 0.00 | 50 | 1013.5 |
| 20260508161731 | 20 | 242 | 1.6 | 3.2 | 0.00 | 0.00 | 0.00 | 50 | 1013.3 |
| 20260508161228 | 19 | 167 | 1.6 | 1.6 | 0.00 | 0.00 | 0.00 | 52 | 1013.4 |
| 20260508160726 | 20 | 357 | 1.6 | 1.6 | 0.00 | 0.00 | 0.00 | 53 | 1013.6 |
| 20260508160225 | 20 | 329 | 0.0 | 1.6 | 0.00 | 0.00 | 0.00 | 51 | 1013.4 |
| 20260508155720 | 20 | 3 | 3.2 | 4.8 | 0.00 | 0.00 | 0.00 | 53 | 1013.6 |
| 20260508155218 | 20 | 310 | 1.6 | 1.6 | 0.00 | 0.00 | 0.00 | 51 | 1013.6 |
| 20260508154714 | 20 | 355 | 1.6 | 1.6 | 0.00 | 0.00 | 0.00 | 50 | 1013.7 |
| 20260508154212 | 19 | 44 | 1.6 | 3.2 | 0.00 | 0.00 | 0.00 | 53 | 1013.7 |
| 20260508153708 | 19 | 348 | 3.2 | 4.8 | 0.00 | 0.00 | 0.00 | 53 | 1013.7 |
| 20260508153206 | 18 | 276 | 1.6 | 3.2 | 0.00 | 0.00 | 0.00 | 55 | 1014.0 |
| 20260508152702 | 18 | 250 | 1.6 | 3.2 | 0.00 | 0.00 | 0.00 | 54 | 1013.9 |
| 20260508152158 | 18 | 256 | 4.8 | 8.0 | 0.00 | 0.00 | 0.00 | 55 | 1013.9 |
| 20260508151654 | 17 | 107 | 1.6 | 1.6 | 0.00 | 0.00 | 0.00 | 58 | 1013.9 |
| 20260508151151 | 17 | 278 | 4.8 | 8.0 | 0.00 | 0.00 | 0.00 | 57 | 1014.0 |
| 20260508150648 | 17 | 315 | 3.2 | 4.8 | 0.00 | 0.00 | 0.00 | 60 | 1014.1 |
| 20260508150144 | 18 | 268 | 3.2 | 4.8 | 0.00 | 0.00 | 0.00 | 52 | 1014.1 |
| 20260508145640 | 17 | 72 | 1.6 | 1.6 | 0.00 | 0.00 | 0.00 | 59 | 1014.3 |
| 20260508145137 | 18 | 56 | 1.6 | 1.6 | 0.00 | 0.00 | 0.00 | 54 | 1013.9 |
| 20260508144635 | 17 | 343 | 3.2 | 4.8 | 0.00 | 0.00 | 0.00 | 56 | 1014.2 |
| 20260508144132 | 16 | 308 | 0.0 | 1.6 | 0.00 | 0.00 | 0.00 | 60 | 1014.2 |
| 20260508143629 | 16 | 332 | 0.0 | 0.0 | 0.00 | 0.00 | 0.00 | 57 | 1014.2 |
| 20260508143126 | 17 | 66 | 0.0 | 1.6 | 0.00 | 0.00 | 0.00 | 57 | 1014.2 |
| 20260508142622 | 17 | 144 | 1.6 | 1.6 | 0.00 | 0.00 | 0.00 | 59 | 1014.5 |
| 20260508142119 | 16 | 70 | 0.0 | 0.0 | 0.00 | 0.00 | 0.00 | 62 | 1014.4 |
| 20260508141616 | 16 | 252 | 1.6 | 3.2 | 0.00 | 0.00 | 0.00 | 58 | 1014.6 |
| 20260508141114 | 15 | 2 | 1.6 | 3.2 | 0.00 | 0.00 | 0.00 | 61 | 1014.6 |
| 20260508140611 | 15 | 128 | 1.6 | 3.2 | 0.00 | 0.00 | 0.00 | 61 | 1014.2 |
| 20260508140108 | 15 | 311 | 0.0 | 0.0 | 0.00 | 0.00 | 0.00 | 58 | 1014.6 |
| 20260508135603 | 15 | 109 | 1.6 | 1.6 | 0.00 | 0.00 | 0.00 | 62 | 1014.5 |
| 20260508135059 | 16 | 76 | 1.6 | 1.6 | 0.00 | 0.00 | 0.00 | 60 | 1014.4 |
| 20260508134556 | 15 | 135 | 1.6 | 1.6 | 0.00 | 0.00 | 0.00 | 61 | 1014.5 |
| 20260508134053 | 15 | 153 | 3.2 | 4.8 | 0.00 | 0.00 | 0.00 | 60 | 1014.5 |
| 20260508133549 | 15 | 150 | 1.6 | 1.6 | 0.00 | 0.00 | 0.00 | 62 | 1014.7 |
| 20260508133047 | 15 | 1 | 3.2 | 3.2 | 0.00 | 0.00 | 0.00 | 61 | 1014.5 |
| 20260508132539 | 15 | 62 | 1.6 | 1.6 | 0.00 | 0.00 | 0.00 | 59 | 1014.4 |
| 20260508132036 | 15 | 163 | 1.6 | 1.6 | 0.00 | 0.00 | 0.00 | 62 | 1014.6 |
| 20260508131531 | 14 | 77 | 0.0 | 0.0 | 0.00 | 0.00 | 0.00 | 62 | 1014.6 |
| 20260508131028 | 14 | 253 | 4.8 | 4.8 | 0.00 | 0.00 | 0.00 | 59 | 1014.6 |
| 20260508130525 | 14 | 334 | 0.0 | 0.0 | 0.00 | 0.00 | 0.00 | 62 | 1014.1 |
| 20260508130021 | 13 | 24 | 0.0 | 0.0 | 0.00 | 0.00 | 0.00 | 63 | 1014.4 |
| 20260508125517 | 13 | 273 | 1.6 | 1.6 | 0.00 | 0.00 | 0.00 | 62 | 1014.3 |
| 20260508125015 | 13 | 292 | 1.6 | 3.2 | 0.00 | 0.00 | 0.00 | 62 | 1014.5 |
| 20260508124513 | 12 | 29 | 0.0 | 0.0 | 0.00 | 0.00 | 0.00 | 64 | 1014.3 |
| 20260508124010 | 12 | 8 | 1.6 | 1.6 | 0.00 | 0.00 | 0.00 | 66 | 1014.1 |
| 20260508123508 | 12 | 20 | 0.0 | 1.6 | 0.00 | 0.00 | 0.00 | 66 | 1014.3 |
| 20260508123004 | 11 | 89 | 0.0 | 0.0 | 0.00 | 0.00 | 0.00 | 69 | 1014.5 |
| 20260508122501 | 11 | 76 | 1.6 | 1.6 | 0.00 | 0.00 | 0.00 | 70 | 1014.3 |
| 20260508121958 | 11 | 275 | 0.0 | 0.0 | 0.00 | 0.00 | 0.00 | 70 | 1014.3 |
| 20260508121456 | 11 | 35 | 0.0 | 0.0 | 0.00 | 0.00 | 0.00 | 71 | 1014.5 |
| 20260508120954 | 10 | 17 | 1.6 | 1.6 | 0.00 | 0.00 | 0.00 | 74 | 1014.5 |
| 20260508120451 | 10 | 5 | 0.0 | 0.0 | 0.00 | 0.00 | 0.00 | 73 | 1014.4 |
| 20260508115949 | 10 | 9 | 0.0 | 0.0 | 0.00 | 0.00 | 0.00 | 73 | 1014.3 |
| 20260508115447 | 10 | 65 | 0.0 | 1.6 | 0.00 | 0.00 | 0.00 | 73 | 1014.4 |
| 20260508114943 | 10 | 48 | 0.0 | 0.0 | 0.00 | 0.00 | 0.00 | 72 | 1014.3 |
| 20260508114440 | 10 | 62 | 0.0 | 0.0 | 0.00 | 0.00 | 0.00 | 74 | 1014.4 |
| 20260508113937 | 9 | 48 | 0.0 | 0.0 | 0.00 | 0.00 | 0.00 | 75 | 1014.4 |
| 20260508113434 | 8 | 62 | 0.0 | 0.0 | 0.00 | 0.00 | 0.00 | 77 | 1014.3 |
| 20260508112931 | 8 | 24 | 0.0 | 0.0 | 0.00 | 0.00 | 0.00 | 77 | 1014.2 |
| 20260508112428 | 8 | 6 | 0.0 | 0.0 | 0.00 | 0.00 | 0.00 | 78 | 1013.9 |
| 20260508111925 | 8 | 20 | 0.0 | 0.0 | 0.00 | 0.00 | 0.00 | 77 | 1013.8 |
| 20260508111422 | 8 | 21 | 0.0 | 0.0 | 0.00 | 0.00 | 0.00 | 77 | 1014.2 |
| 20260508110919 | 8 | 36 | 0.0 | 0.0 | 0.00 | 0.00 | 0.00 | 77 | 1014.0 |
| 20260508110416 | 8 | 78 | 1.6 | 1.6 | 0.00 | 0.00 | 0.00 | 76 | 1014.0 |
| 20260508105910 | 8 | 8 | 0.0 | 0.0 | 0.00 | 0.00 | 0.00 | 77 | 1014.0 |
| 20260508105407 | 8 | 43 | 0.0 | 0.0 | 0.00 | 0.00 | 0.00 | 78 | 1013.9 |
| 20260508104904 | 8 | 10 | 0.0 | 0.0 | 0.00 | 0.00 | 0.00 | 77 | 1013.8 |
| 20260508104402 | 8 | 3 | 0.0 | 0.0 | 0.00 | 0.00 | 0.00 | 78 | 1013.7 |
| 20260508103859 | 7 | 31 | 0.0 | 0.0 | 0.00 | 0.00 | 0.00 | 78 | 1013.8 |
| 20260508103355 | 7 | 5 | 0.0 | 0.0 | 0.00 | 0.00 | 0.00 | 78 | 1013.7 |
| 20260508102853 | 7 | 87 | 0.0 | 0.0 | 0.00 | 0.00 | 0.00 | 79 | 1013.5 |
| 20260508102351 | 7 | 20 | 0.0 | 0.0 | 0.00 | 0.00 | 0.00 | 79 | 1013.7 |
| 20260508101848 | 7 | 22 | 0.0 | 0.0 | 0.00 | 0.00 | 0.00 | 80 | 1013.7 |
| 20260508101345 | 7 | 17 | 0.0 | 0.0 | 0.00 | 0.00 | 0.00 | 81 | 1013.8 |
| 20260508100843 | 7 | 12 | 0.0 | 0.0 | 0.00 | 0.00 | 0.00 | 80 | 1013.7 |
| 20260508100342 | 7 | 19 | 0.0 | 0.0 | 0.00 | 0.00 | 0.00 | 82 | 1014.0 |
| 20260508095836 | 7 | 48 | 0.0 | 0.0 | 0.00 | 0.00 | 0.00 | 82 | 1013.9 |
| 20260508095335 | 7 | 19 | 0.0 | 0.0 | 0.00 | 0.00 | 0.00 | 83 | 1013.9 |
| 20260508094831 | 6 | 37 | 0.0 | 0.0 | 0.00 | 0.00 | 0.00 | 83 | 1013.7 |
| 20260508094328 | 6 | 24 | 0.0 | 0.0 | 0.00 | 0.00 | 0.00 | 84 | 1014.0 |
| 20260508093825 | 6 | 26 | 0.0 | 0.0 | 0.00 | 0.00 | 0.00 | 84 | 1013.9 |
| 20260508093322 | 6 | 26 | 0.0 | 0.0 | 0.00 | 0.00 | 0.00 | 84 | 1014.1 |
| 20260508092820 | 6 | 9 | 0.0 | 0.0 | 0.00 | 0.00 | 0.00 | 83 | 1013.9 |
| 20260508092318 | 6 | 10 | 0.0 | 0.0 | 0.00 | 0.00 | 0.00 | 83 | 1014.1 |
| 20260508091816 | 6 | 13 | 0.0 | 0.0 | 0.00 | 0.00 | 0.00 | 82 | 1013.7 |
| 20260508091312 | 6 | 28 | 0.0 | 0.0 | 0.00 | 0.00 | 0.00 | 82 | 1013.9 |
| 20260508090810 | 6 | 23 | 0.0 | 0.0 | 0.00 | 0.00 | 0.00 | 81 | 1013.9 |
| 20260508090308 | 6 | 31 | 0.0 | 0.0 | 0.00 | 0.00 | 0.00 | 81 | 1014.1 |
| 20260508085803 | 6 | 22 | 0.0 | 0.0 | 0.00 | 0.00 | 0.00 | 83 | 1014.2 |
| 20260508085300 | 6 | 10 | 0.0 | 0.0 | 0.00 | 0.00 | 0.00 | 83 | 1014.3 |
| 20260508084756 | 6 | 358 | 0.0 | 0.0 | 0.00 | 0.00 | 0.00 | 85 | 1014.0 |
| 20260508084254 | 6 | 20 | 0.0 | 0.0 | 0.00 | 0.00 | 0.00 | 85 | 1014.1 |
| 20260508083751 | 6 | 20 | 0.0 | 0.0 | 0.00 | 0.00 | 0.00 | 86 | 1013.8 |
| 20260508083249 | 5 | 28 | 0.0 | 0.0 | 0.00 | 0.00 | 0.00 | 86 | 1014.2 |
| 20260508082748 | 5 | 33 | 0.0 | 0.0 | 0.00 | 0.00 | 0.00 | 86 | 1014.0 |
| 20260508082246 | 5 | 25 | 0.0 | 0.0 | 0.00 | 0.00 | 0.00 | 86 | 1014.1 |
| 20260508081743 | 5 | 10 | 0.0 | 0.0 | 0.00 | 0.00 | 0.00 | 86 | 1014.2 |
| 20260508081240 | 5 | 21 | 0.0 | 0.0 | 0.00 | 0.00 | 0.00 | 85 | 1014.0 |
| 20260508080737 | 5 | 17 | 0.0 | 0.0 | 0.00 | 0.00 | 0.00 | 85 | 1014.1 |
| 20260508080235 | 5 | 21 | 0.0 | 0.0 | 0.00 | 0.00 | 0.00 | 84 | 1014.0 |
| 20260508075731 | 6 | 15 | 0.0 | 0.0 | 0.00 | 0.00 | 0.00 | 84 | 1014.0 |
| 20260508075228 | 6 | 22 | 0.0 | 0.0 | 0.00 | 0.00 | 0.00 | 83 | 1013.9 |
| 20260508074726 | 6 | 18 | 0.0 | 0.0 | 0.00 | 0.00 | 0.00 | 83 | 1014.1 |
| 20260508074224 | 6 | 17 | 0.0 | 0.0 | 0.00 | 0.00 | 0.00 | 82 | 1014.1 |
| 20260508073720 | 6 | 14 | 0.0 | 0.0 | 0.00 | 0.00 | 0.00 | 82 | 1013.8 |
| 20260508073218 | 6 | 14 | 0.0 | 0.0 | 0.00 | 0.00 | 0.00 | 81 | 1014.1 |
| 20260508072714 | 6 | 20 | 0.0 | 0.0 | 0.00 | 0.00 | 0.00 | 80 | 1014.0 |
| 20260508072211 | 7 | 22 | 0.0 | 0.0 | 0.00 | 0.00 | 0.00 | 78 | 1013.9 |
| 20260508071708 | 7 | 26 | 0.0 | 0.0 | 0.00 | 0.00 | 0.00 | 78 | 1014.0 |
| 20260508071207 | 7 | 23 | 0.0 | 0.0 | 0.00 | 0.00 | 0.00 | 76 | 1014.1 |
| 20260508070703 | 7 | 6 | 0.0 | 0.0 | 0.00 | 0.00 | 0.00 | 76 | 1014.0 |
| 20260508070202 | 7 | 26 | 0.0 | 0.0 | 0.00 | 0.00 | 0.00 | 76 | 1014.1 |
| 20260508065659 | 7 | 8 | 0.0 | 0.0 | 0.00 | 0.00 | 0.00 | 75 | 1014.2 |
| 20260508065157 | 8 | 42 | 0.0 | 0.0 | 0.00 | 0.00 | 0.00 | 74 | 1014.3 |
| 20260508064654 | 8 | 52 | 0.0 | 0.0 | 0.00 | 0.00 | 0.00 | 75 | 1014.1 |
| 20260508064152 | 7 | 9 | 0.0 | 0.0 | 0.00 | 0.00 | 0.00 | 75 | 1014.1 |
| 20260508063649 | 7 | 29 | 0.0 | 0.0 | 0.00 | 0.00 | 0.00 | 75 | 1014.5 |
| 20260508063147 | 7 | 323 | 0.0 | 0.0 | 0.00 | 0.00 | 0.00 | 74 | 1014.5 |
| 20260508062644 | 7 | 45 | 0.0 | 1.6 | 0.00 | 0.00 | 0.00 | 76 | 1014.3 |
| 20260508062141 | 7 | 31 | 0.0 | 0.0 | 0.00 | 0.00 | 0.00 | 74 | 1014.3 |
| 20260508061638 | 7 | 38 | 0.0 | 0.0 | 0.00 | 0.00 | 0.00 | 75 | 1014.4 |
| 20260508061136 | 7 | 41 | 0.0 | 0.0 | 0.00 | 0.00 | 0.00 | 75 | 1014.5 |
| 20260508060633 | 7 | 19 | 0.0 | 0.0 | 0.00 | 0.00 | 0.00 | 75 | 1014.4 |
| 20260508060130 | 7 | 18 | 0.0 | 0.0 | 0.00 | 0.00 | 0.00 | 75 | 1014.5 |
| 20260508055625 | 7 | 10 | 0.0 | 0.0 | 0.00 | 0.00 | 0.00 | 75 | 1014.3 |
| 20260508055122 | 7 | 52 | 0.0 | 0.0 | 0.00 | 0.00 | 0.00 | 75 | 1014.5 |
| 20260508054619 | 8 | 43 | 0.0 | 0.0 | 0.00 | 0.00 | 0.00 | 74 | 1014.5 |
| 20260508054116 | 8 | 22 | 0.0 | 0.0 | 0.00 | 0.00 | 0.00 | 74 | 1014.7 |
| 20260508053613 | 7 | 34 | 0.0 | 0.0 | 0.00 | 0.00 | 0.00 | 74 | 1014.7 |
| 20260508053111 | 7 | 33 | 0.0 | 0.0 | 0.00 | 0.00 | 0.00 | 74 | 1014.6 |
| 20260508052608 | 7 | 13 | 0.0 | 0.0 | 0.00 | 0.00 | 0.00 | 75 | 1014.3 |
| 20260508052105 | 7 | 22 | 0.0 | 0.0 | 0.00 | 0.00 | 0.00 | 74 | 1014.7 |
| 20260508051601 | 7 | 19 | 0.0 | 0.0 | 0.00 | 0.00 | 0.00 | 74 | 1014.4 |
| 20260508051056 | 8 | 23 | 0.0 | 0.0 | 0.00 | 0.00 | 0.00 | 73 | 1014.7 |
| 20260508050553 | 8 | 23 | 0.0 | 0.0 | 0.00 | 0.00 | 0.00 | 73 | 1014.7 |
| 20260508050050 | 7 | 11 | 0.0 | 0.0 | 0.00 | 0.00 | 0.00 | 73 | 1014.5 |
| 20260508045546 | 7 | 4 | 0.0 | 0.0 | 0.00 | 0.00 | 0.00 | 74 | 1014.4 |
| 20260508045044 | 7 | 20 | 0.0 | 0.0 | 0.00 | 0.00 | 0.00 | 74 | 1014.5 |
| 20260508044541 | 7 | 22 | 0.0 | 0.0 | 0.00 | 0.00 | 0.00 | 75 | 1014.6 |
| 20260508044037 | 7 | 15 | 0.0 | 0.0 | 0.00 | 0.00 | 0.00 | 75 | 1014.6 |
| 20260508043534 | 7 | 22 | 0.0 | 0.0 | 0.00 | 0.00 | 0.00 | 75 | 1014.4 |
| 20260508043032 | 7 | 6 | 0.0 | 0.0 | 0.00 | 0.00 | 0.00 | 75 | 1014.3 |
| 20260508042528 | 7 | 18 | 0.0 | 0.0 | 0.00 | 0.00 | 0.00 | 75 | 1014.3 |
| 20260508042025 | 7 | 16 | 0.0 | 0.0 | 0.00 | 0.00 | 0.00 | 75 | 1014.3 |
| 20260508041522 | 7 | 18 | 0.0 | 0.0 | 0.00 | 0.00 | 0.00 | 74 | 1014.4 |
| 20260508041018 | 7 | 15 | 0.0 | 0.0 | 0.00 | 0.00 | 0.00 | 73 | 1014.6 |
| 20260508040516 | 7 | 13 | 0.0 | 0.0 | 0.00 | 0.00 | 0.00 | 73 | 1014.4 |
| 20260508040013 | 8 | 6 | 0.0 | 0.0 | 0.00 | 0.00 | 0.00 | 72 | 1014.4 |
| 20260508035510 | 8 | 13 | 0.0 | 0.0 | 0.00 | 0.00 | 0.00 | 71 | 1014.7 |
| 20260508035007 | 8 | 9 | 0.0 | 0.0 | 0.00 | 0.00 | 0.00 | 72 | 1014.5 |
| 20260508034504 | 8 | 13 | 0.0 | 0.0 | 0.00 | 0.00 | 0.00 | 69 | 1014.5 |
| 20260508034001 | 8 | 13 | 0.0 | 0.0 | 0.00 | 0.00 | 0.00 | 70 | 1014.5 |
| 20260508033458 | 8 | 11 | 0.0 | 0.0 | 0.00 | 0.00 | 0.00 | 69 | 1014.5 |
| 20260508032956 | 8 | 10 | 0.0 | 0.0 | 0.00 | 0.00 | 0.00 | 70 | 1014.2 |
| 20260508032453 | 8 | 24 | 0.0 | 0.0 | 0.00 | 0.00 | 0.00 | 67 | 1014.5 |
| 20260508031950 | 8 | 16 | 0.0 | 0.0 | 0.00 | 0.00 | 0.00 | 67 | 1014.4 |
| 20260508031448 | 9 | 18 | 0.0 | 0.0 | 0.00 | 0.00 | 0.00 | 67 | 1014.6 |
| 20260508030942 | 9 | 9 | 0.0 | 0.0 | 0.00 | 0.00 | 0.00 | 66 | 1014.6 |
| 20260508030440 | 9 | 13 | 0.0 | 0.0 | 0.00 | 0.00 | 0.00 | 66 | 1014.2 |
| 20260508025937 | 9 | 8 | 0.0 | 0.0 | 0.00 | 0.00 | 0.00 | 65 | 1014.3 |
| 20260508025434 | 9 | 2 | 0.0 | 0.0 | 0.00 | 0.00 | 0.00 | 65 | 1014.5 |
| 20260508024931 | 9 | 16 | 0.0 | 0.0 | 0.00 | 0.00 | 0.00 | 65 | 1014.4 |
| 20260508024427 | 9 | 7 | 0.0 | 0.0 | 0.00 | 0.00 | 0.00 | 64 | 1014.2 |
| 20260508023924 | 10 | 8 | 0.0 | 0.0 | 0.00 | 0.00 | 0.00 | 65 | 1014.2 |
| 20260508023421 | 9 | 13 | 0.0 | 0.0 | 0.00 | 0.00 | 0.00 | 64 | 1014.1 |
| 20260508022918 | 10 | 14 | 0.0 | 0.0 | 0.00 | 0.00 | 0.00 | 63 | 1014.2 |
| 20260508022413 | 10 | 1 | 0.0 | 0.0 | 0.00 | 0.00 | 0.00 | 63 | 1014.4 |
| 20260508021910 | 10 | 4 | 0.0 | 0.0 | 0.00 | 0.00 | 0.00 | 65 | 1014.3 |
| 20260508021406 | 9 | 357 | 0.0 | 0.0 | 0.00 | 0.00 | 0.00 | 65 | 1014.1 |
| 20260508020902 | 9 | 1 | 0.0 | 0.0 | 0.00 | 0.00 | 0.00 | 66 | 1014.0 |
| 20260508020401 | 9 | 8 | 0.0 | 0.0 | 0.00 | 0.00 | 0.00 | 64 | 1014.0 |
| 20260508015857 | 9 | 11 | 0.0 | 0.0 | 0.00 | 0.00 | 0.00 | 64 | 1014.2 |
| 20260508015355 | 10 | 10 | 0.0 | 0.0 | 0.00 | 0.00 | 0.00 | 63 | 1014.3 |
| 20260508014851 | 10 | 7 | 0.0 | 0.0 | 0.00 | 0.00 | 0.00 | 64 | 1014.4 |
| 20260508014349 | 10 | 9 | 0.0 | 0.0 | 0.00 | 0.00 | 0.00 | 65 | 1014.2 |
| 20260508013844 | 9 | 12 | 0.0 | 0.0 | 0.00 | 0.00 | 0.00 | 67 | 1014.5 |
| 20260508013340 | 10 | 12 | 0.0 | 0.0 | 0.00 | 0.00 | 0.00 | 66 | 1014.3 |
| 20260508012838 | 10 | 12 | 0.0 | 0.0 | 0.00 | 0.00 | 0.00 | 66 | 1014.2 |
| 20260508012335 | 10 | 11 | 0.0 | 0.0 | 0.00 | 0.00 | 0.00 | 64 | 1014.3 |
| 20260508011833 | 10 | 5 | 0.0 | 0.0 | 0.00 | 0.00 | 0.00 | 64 | 1014.3 |
| 20260508011330 | 10 | 6 | 0.0 | 0.0 | 0.00 | 0.00 | 0.00 | 67 | 1014.3 |
| 20260508010827 | 10 | 4 | 0.0 | 0.0 | 0.00 | 0.00 | 0.00 | 64 | 1014.2 |
| 20260508010325 | 10 | 7 | 0.0 | 0.0 | 0.00 | 0.00 | 0.00 | 61 | 1014.2 |
| 20260508005821 | 10 | 6 | 0.0 | 0.0 | 0.00 | 0.00 | 0.00 | 59 | 1014.2 |
| 20260508005318 | 11 | 5 | 0.0 | 0.0 | 0.00 | 0.00 | 0.00 | 58 | 1014.4 |
| 20260508004815 | 11 | 0 | 0.0 | 0.0 | 0.00 | 0.00 | 0.00 | 58 | 1014.2 |
| 20260508004311 | 11 | 2 | 0.0 | 0.0 | 0.00 | 0.00 | 0.00 | 58 | 1014.3 |
| 20260508003807 | 11 | 2 | 0.0 | 0.0 | 0.00 | 0.00 | 0.00 | 57 | 1014.1 |
| 20260508003305 | 11 | 2 | 0.0 | 0.0 | 0.00 | 0.00 | 0.00 | 56 | 1014.2 |
| 20260508002801 | 11 | 1 | 0.0 | 0.0 | 0.00 | 0.00 | 0.00 | 56 | 1014.2 |
| 20260508002258 | 11 | 358 | 0.0 | 0.0 | 0.00 | 0.00 | 0.00 | 56 | 1014.2 |
| 20260508001754 | 11 | 7 | 0.0 | 0.0 | 0.00 | 0.00 | 0.00 | 53 | 1014.0 |
| 20260508001250 | 11 | 9 | 0.0 | 0.0 | 0.00 | 0.00 | 0.00 | 54 | 1014.2 |
| 20260508000746 | 12 | 9 | 0.0 | 0.0 | 0.00 | 0.00 | 0.00 | 53 | 1014.1 |
| 20260508000243 | 12 | 32 | 0.0 | 0.0 | 0.00 | 0.00 | 0.00 | 52 | 1013.9 |
| 20260507235739 | 13 | 6 | 0.0 | 0.0 | 0.00 | 0.00 | 0.00 | 49 | 1013.8 |
| 20260507235238 | 13 | 334 | 1.6 | 1.6 | 0.00 | 0.00 | 0.00 | 47 | 1013.9 |
| 20260507234734 | 13 | 14 | 1.6 | 1.6 | 0.00 | 0.00 | 0.00 | 49 | 1013.6 |
| 20260507234231 | 13 | 334 | 0.0 | 0.0 | 0.00 | 0.00 | 0.00 | 51 | 1013.9 |
| 20260507233727 | 13 | 2 | 0.0 | 0.0 | 0.00 | 0.00 | 0.00 | 51 | 1013.8 |
| 20260507233225 | 13 | 7 | 0.0 | 0.0 | 0.00 | 0.00 | 0.00 | 49 | 1014.1 |
| 20260507232722 | 13 | 26 | 0.0 | 0.0 | 0.00 | 0.00 | 0.00 | 48 | 1014.0 |
| 20260507232219 | 13 | 25 | 1.6 | 3.2 | 0.00 | 0.00 | 0.00 | 44 | 1014.2 |
| 20260507231716 | 13 | 0 | 0.0 | 0.0 | 0.00 | 0.00 | 0.00 | 48 | 1014.1 |
| 20260507231213 | 13 | 358 | 1.6 | 1.6 | 0.00 | 0.00 | 0.00 | 47 | 1013.9 |
| 20260507230710 | 13 | 326 | 1.6 | 1.6 | 0.00 | 0.00 | 0.00 | 45 | 1014.0 |
| 20260507230207 | 13 | 350 | 0.0 | 0.0 | 0.00 | 0.00 | 0.00 | 46 | 1014.0 |
| 20260507225706 | 13 | 20 | 0.0 | 0.0 | 0.00 | 0.00 | 0.00 | 48 | 1013.8 |
| 20260507225203 | 14 | 8 | 0.0 | 0.0 | 0.00 | 0.00 | 0.00 | 48 | 1013.8 |
| 20260507224659 | 14 | 8 | 0.0 | 1.6 | 0.00 | 0.00 | 0.00 | 49 | 1013.6 |
| 20260507224155 | 14 | 300 | 3.2 | 3.2 | 0.00 | 0.00 | 0.00 | 45 | 1013.8 |
| 20260507223651 | 14 | 60 | 0.0 | 1.6 | 0.00 | 0.00 | 0.00 | 46 | 1013.8 |
| 20260507223149 | 14 | 0 | 0.0 | 1.6 | 0.00 | 0.00 | 0.00 | 45 | 1013.7 |
| 20260507222646 | 14 | 4 | 0.0 | 1.6 | 0.00 | 0.00 | 0.00 | 49 | 1013.8 |
| 20260507222142 | 14 | 37 | 0.0 | 0.0 | 0.00 | 0.00 | 0.00 | 47 | 1014.0 |
| 20260507221638 | 15 | 274 | 1.6 | 3.2 | 0.00 | 0.00 | 0.00 | 44 | 1013.9 |
| 20260507221134 | 15 | 352 | 1.6 | 1.6 | 0.00 | 0.00 | 0.00 | 46 | 1014.2 |